DW5595 Weather Reports


Display with metric or nautical units.
time (UTC)temp
F
wind
direction
speed
MPH
gust
MPH
rain 1hr
in
rain 24hr
in
rain mn
in
humidity
%
barometer
mb
20260902194508 93 312 1.0 7.0 0.00 0.00 0.00 53 1018.4
20260902193008 93 268 0.0 8.0 0.00 0.00 0.00 52 1018.5
20260902191510 93 152 0.0 3.0 0.00 0.00 0.00 49 1018.7
20260902190009 93 311 2.0 5.0 0.00 0.00 0.00 50 1018.8
20260902184518 93 276 1.0 2.0 0.00 0.00 0.00 55 1018.9
20260902183010 93 272 0.0 6.0 0.00 0.00 0.00 54 1019.1
20260902181508 93 5 0.0 6.0 0.00 0.00 0.00 54 1019.3
20260902180008 92 317 2.0 5.0 0.00 0.00 0.00 55 1019.3
20260902174513 92 228 0.0 3.0 0.00 0.00 0.00 55 1019.4
20260902173009 92 169 0.0 5.0 0.00 0.00 0.00 56 1019.6
20260902171509 91 309 1.0 6.0 0.00 0.00 0.00 56 1019.8
20260902170010 91 312 1.0 6.0 0.00 0.00 0.00 56 1020.0
20260902164516 91 329 2.0 5.0 0.00 0.00 0.00 56 1020.1
20260902163012 91 344 0.0 2.0 0.00 0.00 0.00 59 1020.2
20260902161518 90 352 0.0 2.0 0.00 0.00 0.00 59 1020.3
20260902160010 90 36 0.0 3.0 0.00 0.00 0.00 60 1020.4
20260902154514 90 163 0.0 0.0 0.00 0.00 0.00 61 1020.4
20260902153009 89 199 0.0 2.0 0.00 0.00 0.00 63 1020.6
20260902151514 87 32 2.0 3.0 0.00 0.00 0.00 67 1020.5
20260902150012 86 5 1.0 3.0 0.00 0.00 0.00 68 1020.5
20260902144525 85 30 0.0 4.0 0.00 0.00 0.00 69 1020.6
20260902143011 84 340 2.0 5.0 0.00 0.00 0.00 74 1020.5
20260902141518 83 317 2.0 4.0 0.00 0.00 0.00 75 1020.5
20260902140018 82 10 0.0 2.0 0.00 0.00 0.00 78 1020.4
20260902134514 81 352 2.0 4.0 0.00 0.00 0.00 79 1020.4
20260902133017 79 316 0.0 2.0 0.00 0.00 0.00 82 1020.3
20260902131538 77 141 0.0 0.0 0.00 0.00 0.00 88 1020.3
20260902130019 74 338 0.0 2.0 0.00 0.00 0.00 93 1020.2
20260902124519 72 149 0.0 0.0 0.00 0.00 0.00 96 1020.4
20260902123037 71 149 0.0 0.0 0.00 0.00 0.00 96 1020.3
20260902121523 70 149 0.0 0.0 0.00 0.00 0.00 97 1020.3
20260902120021 69 149 0.0 0.0 0.00 0.00 0.00 97 1020.1
20260902114521 69 149 0.0 0.0 0.00 0.00 0.00 96 1020.0
20260902113023 69 149 0.0 0.0 0.00 0.00 0.00 96 1019.9
20260902111523 69 149 0.0 0.0 0.00 0.00 0.00 96 1019.8
20260902110025 69 149 0.0 0.0 0.00 0.00 0.00 96 1019.8
20260902104521 69 149 0.0 1.0 0.00 0.00 0.00 96 1019.7
20260902103013 69 161 0.0 0.0 0.00 0.00 0.00 96 1019.7
20260902101513 69 161 0.0 0.0 0.00 0.00 0.00 96 1019.7
20260902100012 69 155 0.0 0.0 0.00 0.00 0.00 96 1019.5
20260902094510 69 155 0.0 0.0 0.00 0.00 0.00 96 1019.4
20260902093009 69 155 0.0 0.0 0.00 0.00 0.00 96 1019.3
20260902091512 69 155 0.0 0.0 0.00 0.00 0.00 96 1019.3
20260902090026 70 155 0.0 0.0 0.00 0.00 0.00 96 1019.1
20260902084514 70 155 0.0 0.0 0.00 0.00 0.00 96 1019.2
20260902083015 70 155 0.0 0.0 0.00 0.00 0.00 96 1019.1
20260902081524 70 155 0.0 0.0 0.00 0.00 0.00 95 1019.0
20260902080013 70 155 0.0 0.0 0.00 0.00 0.00 95 1018.9
20260902074508 70 155 0.0 0.0 0.00 0.00 0.00 95 1018.9
20260902073009 70 155 0.0 0.0 0.00 0.00 0.00 95 1018.8
20260902071536 71 155 0.0 0.0 0.00 0.00 0.00 95 1019.1
20260902070015 71 155 0.0 0.0 0.00 0.00 0.00 95 1018.9
20260902064519 71 155 0.0 0.0 0.00 0.00 0.00 95 1018.9
20260902063026 71 155 0.0 0.0 0.00 0.00 0.00 95 1019.0
20260902061518 71 155 0.0 0.0 0.00 0.00 0.00 95 1019.0
20260902060021 71 155 1.0 2.0 0.00 0.00 0.00 95 1019.0
20260902053022 72 167 0.0 0.0 0.00 0.00 0.00 95 1019.1
20260902051529 72 167 0.0 0.0 0.00 0.00 0.00 95 1018.9
20260902050030 72 167 0.0 0.0 0.00 0.00 0.00 95 1019.0
20260902044526 72 167 0.0 0.0 0.00 0.00 0.00 95 1018.9
20260902043018 72 167 0.0 0.0 0.00 0.00 0.00 95 1018.9
20260902041514 72 167 0.0 0.0 0.00 0.00 0.00 95 1019.1
20260902040023 73 167 0.0 0.0 0.00 0.00 0.00 95 1018.9
20260902034524 73 167 0.0 0.0 0.00 0.00 0.00 94 1018.8
20260902033024 73 167 0.0 3.0 0.00 0.00 0.00 94 1018.9
20260902031526 73 167 0.0 0.0 0.00 0.00 0.00 94 1018.9
20260902030024 74 167 0.0 0.0 0.00 0.00 0.00 93 1018.9
20260902024516 74 167 0.0 0.0 0.00 0.00 0.00 93 1018.8
20260902023018 75 167 0.0 0.0 0.00 0.00 0.00 93 1018.8
20260902021527 75 167 0.0 0.0 0.00 0.00 0.00 92 1018.7
20260902020023 75 167 0.0 0.0 0.00 0.00 0.00 92 1018.7
20260902014533 76 167 0.0 0.0 0.00 0.00 0.00 92 1018.5
20260902013033 76 167 0.0 0.0 0.00 0.00 0.00 91 1018.3
20260902011527 77 167 0.0 0.0 0.00 0.00 0.00 90 1018.4
20260902010038 77 167 0.0 0.0 0.00 0.00 0.00 89 1018.3
20260902004527 78 167 0.0 0.0 0.00 0.00 0.00 89 1018.2
20260902003031 79 167 0.0 0.0 0.00 0.00 0.00 87 1018.0
20260902001527 80 167 0.0 0.0 0.00 0.00 0.00 85 1018.0
20260902000038 81 167 0.0 0.0 0.00 0.00 0.00 83 1018.0
20260901234527 82 167 0.0 0.0 0.00 0.00 0.00 81 1018.0
20260901233026 83 167 0.0 1.0 0.00 0.00 0.00 80 1018.0
20260901231523 84 163 0.0 0.0 0.00 0.00 0.00 76 1018.0
20260901230033 85 163 0.0 0.0 0.00 0.00 0.00 77 1018.2
20260901224540 85 163 0.0 0.0 0.00 0.00 0.00 75 1018.0
20260901223043 85 163 0.0 2.0 0.00 0.00 0.00 73 1018.0
20260901221528 85 170 0.0 0.0 0.00 0.00 0.00 71 1018.0
20260901220031 87 170 0.0 0.0 0.00 0.00 0.00 66 1018.2
20260901214531 89 170 0.0 0.0 0.00 0.00 0.00 61 1018.1
20260901213039 90 170 0.0 0.0 0.00 0.00 0.00 59 1018.0
20260901211526 91 161 1.0 2.0 0.00 0.00 0.00 55 1017.9
20260901210024 91 150 0.0 2.0 0.00 0.00 0.00 54 1017.9
20260901204515 91 119 0.0 3.0 0.00 0.00 0.00 51 1018.1
20260901203029 92 149 0.0 2.0 0.00 0.00 0.00 55 1018.2
20260901201529 92 5 0.0 3.0 0.00 0.00 0.00 53 1018.3
20260901200041 92 337 0.0 3.0 0.00 0.00 0.00 51 1018.5